Location: Glens Falls
(43.3090°N, 73.6440°W)
Time: 05:20:38
(UTC-04:00)

Resurs 1-3 - Pass Details

Date: 24 February 2018
Orbit: 630 x 632 km, 98.0° (Epoch: 19 June)

Event Time Altitude Azimuth Distance (km) Brightness Sun altitude
Exits shadow 18:56:33 26° 93° (E) 1,254 4.5 -15.2°
Maximum altitude 18:57:36 29° 68° (ENE) 1,170 4.5 -15.3°
Drops below altitude 10° 19:01:22 10° 9° (N) 2,020 6.1 -16.0°
Sets 19:03:47 0° 358° (N) 2,932 7.1 -16.5°
